Location: Newark
(42.8481°N, 0.4872°E)
Time: 17:26:30
(UTC+00:00)

A-11 Canister half - Pass Details

Date: 04 November 2020
Orbit: 1525 x 1683 km, 47.3° (Epoch: 22 November)

Event Time Altitude Azimuth Distance (km) Brightness Sun altitude
Rises 13:45:04 0° 253° (WSW) 4,823 12.3 25.0°
Reaches altitude 10° 13:48:13 10° 255° (WSW) 3,817 11.9 24.7°
Maximum altitude 13:57:55 79° 342° (NNW) 1,592 9.4 23.7°
Drops below altitude 10° 14:07:21 10° 70° (ENE) 3,713 10.6 22.6°
Sets 14:10:23 0° 72° (ENE) 4,687 11.1 22.3°
